Volver al catálogo

CAPELLA-13

ACADIA

ActivoCienciaLEO
NORAD 60419·PAYLOAD·🇺🇸 United States

Lanzado Aug 11, 2024 desde Rocket Lab Launch Complex 1

Loading…

Próximos Pases (próximas 24 horas)

TLE

ActualizadoSource: Space-Track

Época: Sep 14, 2026, 15:41 UTC

1 60419U 24142A   26257.65412395  .00003676  00000-0  42563-3 0  9995
2 60419  53.0059  27.0409 0001251  91.7495 268.3629 14.87664160113723

Sigue CAPELLA-13 en tiempo real con AllMySat

Download on the App Store